Погода в Стэмфорде

США     41°03′37″N   73°32′34″W
В апреле 2022 года жителям России запретили посещать сайт meteo.paraplan.net по решению Генеральной прокуратуры. Аудитория сайта уменьшилась в 10 раз. Владельцы сайта не видят смысла в поддержке погодного сервера в таких условиях. Сайт будет закрыт в октябре.
темп.,
°C
ветер,
м/с
пор.,
м/с
влажн.,
%
обл.,
%
осадки,
мм/ч
давл.,
гПа
погр.,
м
4 октября, вт
вт423:00+11ссв81280100 4.3 1021852
02:00+10ссв101485100 11.4 1020812
05:00+10ссв101691100 16.4 1017754
08:00+11св111891100 22.4 1017848
11:00+11св101693100 6.4 1016820
14:00+12св101693100 9.0 1015869
17:00+14св101591100 1.3 1014876
20:00+14св101593100 2.1 1015820
5 октября, ср
ср523:00+14св91594100 1.1 1014718
02:00+14св91594100 4.6 1013721
05:00+14ссв81495100 10.9 1012718
08:00+14ссв91495100 41.1 1012681
11:00+13ссв81395100 20.0 1014653
14:00+14ссв81292100 28.8 1014720
17:00+14ссв71291100 0.9 1013560
20:00+15ссв5118872 2.6 1015476
6 октября, чт
чт623:00+14ссв4788100 0.0 1015393
02:00+14с348559 0.0 1015245
05:00+13ссз34850 0.0 1015166
08:00+12ссз35745 0.0 1016171
11:00+16ссз235628 0.0 1016384
14:00+20зюз224765 0.0 1015471
17:00+20зюз1252100 0.0 101491
20:00+19юз4657100 0.0 1014180
7 октября, пт
пт723:00+18юз3570100 0.0 1014183
02:00+17юз46707 0.0 1014234
05:00+16зюз58765 0.0 1013269
08:00+16зюз46755 0.0 1013220
11:00+20зюз46585 0.0 1013429
14:00+22юз69484 0.0 1011822
17:00+21зсз8125775 0.0 1011609
20:00+13зсз91466100 0.1 1016696
8 октября, сб
сб823:00+10сз912630 0.0 1018784
02:00+9сз711601 0.0 10191006
05:00+8зсз711665 0.0 1020908
08:00+8сз711611 0.0 1021879
11:00+10сз68569 0.0 10221331
14:00+12зсз68454 0.0 10201543
17:00+14сз68424 0.0 10191692
20:00+12зсз47471 0.0 1020957